Escanaba, MI

4:04 PM EDT on September 19, 2017 (GMT -0400)
Delta County

Weather History for KESC - December, 2011

Change the Weather History Date:

Sunday, December 4, 2011

  Actual Average Record
Temperature  
Mean Temperature 32 °F -  
Max Temperature 37 °F 30 °F 57 °F (1961)
Min Temperature 28 °F 18 °F 0 °F (1972)
Degree Days  
Heating Degree Days 32    
Moisture  
Dew Point 27 °F    
Average Humidity 75    
Maximum Humidity 87    
Minimum Humidity 64    
Precipitation  
Precipitation 0.07 in - - ()
Sea Level Pressure  
Sea Level Pressure 29.98 in    
Wind  
Wind Speed 7 mph (NNW)    
Max Wind Speed 14 mph    
Max Gust Speed 21 mph    
Visibility 9 miles    
Events      
Averages and records for this station are not official NWS values.
T = Trace of Precipitation, MM = Missing Value Source: NWS Daily Summary

Daily Weather History Graph

Daily Weather History Graph

Search for Another Location

Airport or City:

Trip Planner

Search our weather history database for the weather conditions in past years. The results will help you decide how hot, cold, wet, or windy it might be!

Date:

Astronomy

Dec. 04, 2011 Rise Set
Actual Time 8:11 AM EST 5:04 PM EST
Civil Twilight 7:38 AM EST 5:38 PM EST
Nautical Twilight 7:00 AM EST 6:16 PM EST
Astronomical Twilight 6:24 AM EST 6:51 PM EST
Moon 1:47 PM EST (12/4) 2:22 AM EST (12/4)
Length of Visible Light 10h 00m
Length of Day
8h 52m
Waxing Gibbous, 71% of the Moon is Illuminated
Dec 4
Waxing Gibbous
Dec 10
Full
Dec 17
Last Quarter
Dec 24
New
Jan 1
First Quarter

Hourly Weather History & Observations

Time (EST) Temp. Windchill Dew Point Humidity Pressure Visibility Wind Dir Wind Speed Gust Speed Precip Events Conditions
12:15 AM 35.6 °F 31.7 °F 30.2 °F 81% 29.87 in 4.0 mi North 4.6 mph - 0.01 in   Overcast
12:35 AM 35.6 °F 30.7 °F 30.2 °F 81% 29.86 in 4.0 mi North 5.8 mph - 0.02 in   Overcast
12:55 AM 35.6 °F 28.6 °F 30.2 °F 81% 29.85 in 4.0 mi North 9.2 mph 16.1 mph 0.02 in   Overcast
1:15 AM 35.6 °F 32.8 °F 30.2 °F 81% 29.84 in 3.0 mi North 3.5 mph - 0.01 in   Overcast
1:35 AM 33.8 °F 28.6 °F 30.2 °F 87% 29.82 in 3.0 mi North 5.8 mph - 0.02 in   Overcast
1:55 AM 35.6 °F 32.8 °F 30.2 °F 81% 29.81 in 3.0 mi North 3.5 mph - 0.03 in   Overcast
2:15 AM 33.8 °F 28.6 °F 30.2 °F 87% 29.80 in 3.0 mi North 5.8 mph - 0.01 in   Overcast
3:35 AM 33.8 °F 30.8 °F 30.2 °F 87% 29.78 in 3.0 mi North 3.5 mph - N/A   Overcast
4:15 AM 33.8 °F 27.7 °F 30.2 °F 87% 29.78 in 4.0 mi North 6.9 mph - N/A   Overcast
4:35 AM 33.8 °F 27.7 °F 28.4 °F 81% 29.76 in 7.0 mi North 6.9 mph - N/A   Overcast
4:55 AM 33.8 °F 27.0 °F 28.4 °F 81% 29.76 in 10.0 mi North 8.1 mph - N/A   Overcast
5:15 AM 33.8 °F 27.0 °F 28.4 °F 81% 29.78 in 10.0 mi North 8.1 mph - N/A   Overcast
5:35 AM 33.8 °F 28.6 °F 28.4 °F 81% 29.78 in 10.0 mi North 5.8 mph - N/A   Overcast
5:55 AM 33.8 °F 27.0 °F 28.4 °F 81% 29.77 in 9.0 mi North 8.1 mph - N/A   Overcast
6:15 AM 33.8 °F 27.0 °F 28.4 °F 81% 29.79 in 10.0 mi NNW 8.1 mph - 0.01 in   Overcast
6:35 AM 33.8 °F 27.7 °F 28.4 °F 81% 29.79 in 7.0 mi NNW 6.9 mph - 0.01 in   Overcast
6:55 AM 33.8 °F 27.0 °F 28.4 °F 81% 29.80 in 7.0 mi NNW 8.1 mph - 0.01 in   Overcast
7:15 AM 33.8 °F 27.7 °F 28.4 °F 81% 29.81 in 10.0 mi NNW 6.9 mph - N/A   Overcast
7:35 AM 33.8 °F 27.0 °F 28.4 °F 81% 29.82 in 10.0 mi NNW 8.1 mph - N/A   Overcast
7:55 AM 33.8 °F 29.6 °F 28.4 °F 81% 29.83 in 10.0 mi NNW 4.6 mph - N/A   Overcast
8:15 AM 33.8 °F 27.7 °F 28.4 °F 81% 29.83 in 10.0 mi NNW 6.9 mph - N/A   Mostly Cloudy
8:35 AM 33.8 °F 28.6 °F 28.4 °F 81% 29.83 in 10.0 mi NNW 5.8 mph - N/A   Overcast
8:55 AM 33.8 °F 27.7 °F 28.4 °F 81% 29.83 in 10.0 mi NNW 6.9 mph - N/A   Overcast
9:15 AM 33.8 °F 28.6 °F 28.4 °F 81% 29.84 in 10.0 mi NNW 5.8 mph - N/A   Overcast
9:35 AM 35.6 °F 29.9 °F 28.4 °F 75% 29.86 in 10.0 mi NNW 6.9 mph - N/A   Overcast
9:55 AM 35.6 °F 31.7 °F 28.4 °F 75% 29.88 in 10.0 mi NW 4.6 mph - N/A   Mostly Cloudy
10:15 AM 35.6 °F 30.7 °F 28.4 °F 75% 29.90 in 10.0 mi NW 5.8 mph - N/A   Mostly Cloudy
10:55 AM 35.6 °F 30.7 °F 30.2 °F 81% 29.91 in 10.0 mi NW 5.8 mph - N/A   Overcast
11:15 AM 35.6 °F 30.7 °F 30.2 °F 81% 29.92 in 10.0 mi WNW 5.8 mph - N/A   Overcast
11:35 AM 35.6 °F 29.9 °F 30.2 °F 81% 29.93 in 10.0 mi WNW 6.9 mph - N/A   Overcast
11:55 AM 35.6 °F 30.7 °F 30.2 °F 81% 29.94 in 10.0 mi WNW 5.8 mph - N/A   Overcast
1:15 PM 37.4 °F 30.3 °F 30.2 °F 75% 29.96 in 10.0 mi NNW 10.4 mph - N/A   Overcast
1:35 PM 37.4 °F 28.9 °F 30.2 °F 75% 29.97 in 10.0 mi NNW 13.8 mph 19.6 mph N/A   Overcast
1:55 PM 37.4 °F 28.9 °F 28.4 °F 70% 29.99 in 10.0 mi NNW 13.8 mph 18.4 mph N/A   Mostly Cloudy
2:15 PM 37.4 °F 31.4 °F 28.4 °F 70% 29.99 in 10.0 mi North 8.1 mph - N/A   Overcast
2:35 PM 35.6 °F 27.5 °F 26.6 °F 70% 30.01 in 10.0 mi NNW 11.5 mph 17.3 mph N/A   Overcast
2:55 PM 35.6 °F 27.5 °F 26.6 °F 70% 30.02 in 10.0 mi North 11.5 mph 20.7 mph N/A   Mostly Cloudy
3:15 PM 35.6 °F 27.5 °F 26.6 °F 70% 30.02 in 10.0 mi NNW 11.5 mph 18.4 mph N/A   Mostly Cloudy
3:35 PM 35.6 °F 26.6 °F 24.8 °F 65% 30.03 in 10.0 mi NNW 13.8 mph 20.7 mph N/A   Mostly Cloudy
3:55 PM 33.8 °F 25.8 °F 26.6 °F 75% 30.05 in 9.0 mi NNW 10.4 mph 18.4 mph N/A   Mostly Cloudy
4:15 PM 33.8 °F 27.0 °F 24.8 °F 70% 30.07 in 10.0 mi NNW 8.1 mph - N/A   Mostly Cloudy
4:35 PM 33.8 °F 26.4 °F 24.8 °F 70% 30.08 in 10.0 mi North 9.2 mph - N/A   Overcast
4:55 PM 33.8 °F 26.4 °F 24.8 °F 70% 30.10 in 4.0 mi North 9.2 mph - N/A   Overcast
5:15 PM 33.8 °F 27.0 °F 24.8 °F 70% 30.11 in 9.0 mi North 8.1 mph - N/A   Overcast
5:35 PM 33.8 °F 28.6 °F 24.8 °F 70% 30.11 in 10.0 mi North 5.8 mph - N/A   Overcast
5:55 PM 33.8 °F 28.6 °F 24.8 °F 70% 30.13 in 10.0 mi NW 5.8 mph - N/A   Overcast
6:15 PM 33.8 °F 26.4 °F 23.0 °F 65% 30.14 in 10.0 mi NW 9.2 mph - N/A   Overcast
6:36 PM 33.8 °F 27.0 °F 23.0 °F 65% 30.16 in 10.0 mi NW 8.1 mph - N/A   Overcast
6:55 PM 33.8 °F 27.0 °F 23.0 °F 65% 30.17 in 10.0 mi NW 8.1 mph - N/A   Overcast
7:55 PM 32.0 °F 24.2 °F 23.0 °F 69% 30.20 in 10.0 mi NW 9.2 mph - N/A   Overcast
8:15 PM 32.0 °F 25.6 °F 23.0 °F 69% 30.21 in 10.0 mi NW 6.9 mph - N/A   Overcast
8:35 PM 32.0 °F 25.6 °F 23.0 °F 69% 30.21 in 10.0 mi NW 6.9 mph - N/A   Overcast
8:55 PM 32.0 °F 26.4 °F 21.2 °F 64% 30.23 in 10.0 mi NNW 5.8 mph - N/A   Overcast
9:15 PM 30.2 °F 24.3 °F 21.2 °F 69% 30.24 in 10.0 mi NNW 5.8 mph - N/A   Overcast
9:35 PM 30.2 °F 23.4 °F 21.2 °F 69% 30.24 in 10.0 mi North 6.9 mph - N/A   Overcast
9:55 PM 30.2 °F 24.3 °F 21.2 °F 69% 30.24 in 10.0 mi North 5.8 mph - N/A   Overcast
10:15 PM 30.2 °F 24.3 °F 21.2 °F 69% 30.24 in 10.0 mi North 5.8 mph - N/A   Overcast
10:55 PM 30.2 °F 22.6 °F 19.4 °F 64% 30.25 in 10.0 mi NNW 8.1 mph - N/A   Overcast
11:15 PM 30.2 °F 22.6 °F 19.4 °F 64% 30.25 in 10.0 mi NW 8.1 mph - N/A   Overcast
11:35 PM 28.4 °F 19.7 °F 19.4 °F 69% 30.26 in 10.0 mi NW 9.2 mph - N/A   Overcast
11:55 PM 28.4 °F 20.4 °F 17.6 °F 64% 30.27 in 10.0 mi NW 8.1 mph - N/A   Overcast